Flag Weather past 2 weeks in Markham, Ontario, Canada

Now
39 °F

Partly cloudy.


Feels Like: 39 °F
Forecast: 38 / 49 °F
Wind: 2 mph from West

Location: Toronto Buttonville

Current Time: Oct 30, 2014 at 9:12:09 AM

Latest Report: Oct 30, 2014 at 8:00 AM


Visibility: 15 mi

Pressure: 30.06 "Hg

Humidity: 87%

Dew point: 36 °F

Location of MarkhamLocation

Historic Weather in Markham — Graph

°F

Markham temperature yesterday

Maximum temperature yesterday: 54 °F (at 12:00 AM)
Minimum temperature yesterday: 41 °F (at 11:00 PM)
Average temperature yesterday: 48 °F

Past Weeks' High & Low Weather Summary

 TemperatureHumidityPressure
High68 °F (Oct 28, 2:00 PM)100% (Oct 15, 8:00 AM)30.29 "Hg (Oct 15, 8:00 AM)
Low34 °F (Oct 27, 5:00 AM)42% (Oct 24, 4:00 PM)29.48 "Hg (Oct 18, 12:00 AM)
Average50 °F79%29.87 "Hg
* Reported Oct 15 8:00 AM — Oct 30 8:00 AM, Markham, Weather by CustomWeather, © 2014

Note: Actual official high and low records may vary slightly from our data, if they occured in-between our weather recording intervals... More about our weather records

Advertising

Markham weather history for previous 24 hours

 ConditionsComfort  
Time TempWeatherWind HumidityBarometerVisibility
8:00 AM
Oct 30
39 °FPartly cloudy.2 mph87%30.06 "Hg15 mi
7:00 AM41 °FPassing clouds.3 mph81%30.06 "Hg15 mi
6:00 AM41 °FPassing clouds.5 mph81%30.04 "Hg15 mi
5:00 AM41 °FPassing clouds.5 mph87%30.03 "Hg15 mi
4:00 AM39 °FPassing clouds.3 mph93%30.02 "Hg15 mi
3:00 AM41 °FPassing clouds.3 mph87%30.01 "Hg15 mi
2:00 AM43 °FPassing clouds.6 mph81%30.00 "Hg15 mi
1:00 AM41 °FPassing clouds.7 mph87%29.99 "Hg15 mi
12:00 AM41 °FPassing clouds.5 mph87%29.98 "Hg15 mi
11:00 PM
Oct 29
41 °FPassing clouds.5 mph87%29.98 "Hg15 mi
10:00 PM43 °FPassing clouds.7 mph81%29.97 "Hg15 mi
9:00 PM45 °FPassing clouds.6 mph76%29.96 "Hg15 mi
8:00 PM45 °FPassing clouds.8 mph76%29.96 "Hg15 mi
7:00 PM46 °FPartly sunny.7 mph71%29.93 "Hg15 mi
6:00 PM46 °FPartly sunny.7 mph76%29.91 "Hg15 mi
5:00 PM48 °FPartly sunny.7 mph66%29.90 "Hg15 mi
4:00 PM50 °FMore clouds than sun.14 mph62%29.88 "Hg15 mi
3:00 PM50 °FMore clouds than sun.6 mph67%29.87 "Hg15 mi
2:00 PM50 °FOvercast.9 mph67%29.87 "Hg15 mi
1:00 PM52 °FPartly sunny.12 mph58%29.87 "Hg15 mi
12:00 PM52 °FPartly sunny.12 mph58%29.88 "Hg15 mi
11:00 AM52 °FPartly sunny.9 mph62%29.88 "Hg15 mi
10:00 AM46 °FPartly sunny.5 mph76%29.88 "Hg15 mi
9:00 AM46 °FScattered clouds.6 mph71%29.88 "Hg15 mi
Weather by CustomWeather, © 2014

See weather overviewHow to use our weather pages